Regional Weather Roundup
Issued by NWS Charleston, SC

Current Version | Previous Version | Graphics & Text | Print | Product List | Glossary On
Versions: 1 2 3 4 5 6 7 8 9 10 11 12 13 14 15 16 17 18 19 20 21 22 23 24 25 26 27 28 29 30 31 32 33 34 35 36 37 38 39 40 41 42 43 44 45 46 47 48 49 50
000
ASUS42 KCHS 300813
RWRCHS

REGIONAL WEATHER ROUNDUP
NATIONAL WEATHER SERVICE CHARLESTON SC
400 AM EDT SAT JUL 30 2016

NOTE: "FAIR" INDICATES FEW OR NO CLOUDS BELOW 12,000 FEET WITH NO
SIGNIFICANT WEATHER AND/OR OBSTRUCTIONS TO VISIBILITY.

NOT ALL STATIONS ARE QUALITY CONTROLLED. USE DATA WITH CAUTION...
ESPECIALLY DEWPOINT OBSERVATIONS.

SCZ027-030-031-034>040-042>050-300900-
...SOUTHEAST SOUTH CAROLINA...

CITY           SKY/WX    TMP DP  RH WIND       PRES   REMARKS
N CHARLESTON   CLEAR     82  77  84 SW8       29.93S HX  90
WATERFRONT PRK   N/A     85  80  85 SW5       29.92S HX  99
MOUNT PLEASANT FAIR      84  79  84 SW6       29.93F HX  96
JOHNS ISLAND   FAIR      86  79  79 SW6       29.94S HX  99
PINOPOLIS        N/A     82  79  89 S5        29.86F HX  93
MONCKS CORNER  FAIR      77  75  94 SW5       29.93S
SUMMERVILLE    NOT AVBL
BEAUFORT MCAS  CLEAR     82  74  76 SW7       29.95S
BEAUFORT ARPT  FAIR      82  75  78 SW7       29.94S
HILTON HEAD IS CLEAR     84  77  79 SW6       29.96S HX  94
WALTERBORO     SUNNY     81  79  94 SW5       29.94F
ALLENDALE      FAIR      77  72  83 CALM      29.94S

...SOUTHERN MIDLANDS AND PEE DEE...

CITY           SKY/WX    TMP DP  RH WIND       PRES   REMARKS
GEORGETOWN     FAIR      77  75  94 CALM      29.94F
KINGSTREE      FAIR      77  73  88 CALM      29.92F
ORANGEBURG     CLEAR     77  73  87 CALM      29.93F
BARNWELL       NOT AVBL
AIKEN          FAIR      73  68  83 CALM      29.98S
MANNING        FAIR      75  73  94 CALM      29.92F
COLUMBIA       CLEAR     79  71  76 W3        29.92F
SUMTER         CLEAR     77  73  88 CALM      29.90F FOG
FLORENCE       CLEAR     76  73  91 CALM      29.92F
MYRTLE BEACH   CLEAR     82  72  69 SW6       29.95S
N MYRTLE BEACH PTCLDY    83  78  85 SW10      29.92F HX  93

$$

GAZ063-065-086>088-099>101-113>116-118-119-134>141-150-300900-
...SOUTHEAST GEORGIA...

CITY           SKY/WX    TMP DP  RH WIND       PRES   REMARKS
SAVANNAH ARPT  CLEAR     80  72  76 SW7       29.96F
HUNTER AAF     CLEAR     80  76  86 SW6       29.94S
FORT STEWART   CLEAR     79  70  74 S2        29.95S
STATESBORO     CLEAR     81  72  74 W3        29.95S
SYLVANIA       NOT AVBL
CLAXTON        FAIR      78  73  83 SW3       29.97S

...CSRA...CENTRAL AND FAR SOUTHEAST GEORGIA...

CITY           SKY/WX    TMP DP  RH WIND       PRES   REMARKS
THOMSON        NOT AVBL
AUGUSTA-BUSH   CLEAR     75  71  87 CALM      29.93F
AUGUSTA-DANIEL CLEAR     80  70  71 CALM      29.95F
SWAINSBORO     FAIR      77  70  78 CALM      29.97F
VIDALIA        CLEAR     79  70  73 CALM      29.97F
EASTMAN        FAIR      80  64  59 W3        30.00S
HAZLEHURST     FAIR      80  75  84 CALM      29.97S
ALMA           PTCLDY    75  72  90 S3        29.98F
WAYCROSS       CLEAR     79  76  89 CALM      29.99S
JESUP          FAIR      77  73  88 CALM      29.98F
BAXLEY         FAIR      77  77 100 S6        29.98S
BRUNSWICK      CLEAR     79  77  94 W5        29.99F
SAINT SIMONS   CLEAR     81  75  82 SW8       29.98F

$$

SCZ027-028-034-036>038-045-046-048>050-GAZ119-141-300900-
...LAKE AND SUPPLEMENTAL COASTAL OBSERVATIONS...

STATION/POSITION TIME  TEMP    WIND        PRES    WAVE   SWELL
                       AIR SEA DIR/SP/G            HT/PER HT/PER/DIR
                 (UTC) (F)     (DEG/KT/KT) (MB)    (FT/S) (FT/S/D)
WINYAH BAY       0645   81        CALM     1013.0
LAKE MURRAY      0700   83     270/  4/  5 1013.2F
ACE BASIN NERRS  NOT AVBL
FORT PULASKI     0700   83 87  210/  4/  6 1014.9F
SAPELO ISLAND    0700   83     230/  9     1015.0S

$$

ANZ835-935-AMZ111-154-330-350-352-354-370-450-454-472-300900-
...C-MAN AND BUOY OBSERVATIONS...

STATION/POSITION TIME  TEMP    WIND        PRES    WAVE   SWELL
                       AIR SEA DIR/SP/G            HT/PER HT/PER/DIR
                 (UTC) (F)     (DEG/KT/KT) (MB)    (FT/S) (FT/S/D)
BUOY 41004       0750   86 86  230/ 16/ 19 1013.3    3/ 5   2/130/ 8
BUOY 41008       0750   85 87  240/ 16/ 19 1014.4    3/ 5
FOLLY BEACH CMAN 0800   86     230/ 13/ 16 1013.8F
CAPERS NEARSHORE 0708   86 85  230/ 14/ 19 1013.7F
FRIPP NEARSHORE  0708   87 87  230/ 16/ 21 1013.7R


STATION/POSITION TIME  TEMP    WIND        PRES    WAVE   SWELL
                       AIR SEA DIR/SP/G            HT/PER HT/PER/DIR
                 (UTC) (F)     (DEG/KT/KT) (MB)    (FT/S) (FT/S/D)
5E ST. MARYS GA  NOT AVBL
FRYING PAN BUOY  0700   85 85  240/ 14/ 16 1013.8F
BUOY 41025       0750   83 86  290/  4/  6 1013.3    3/ 6   2/220/ 6
CAPE LOOKOUT NC  0700   82     250/  6/  7 1013.6F
BUOY 41002       NOT AVBL
BUOY 41010       0720   85 87  220/  6/  8 1016.5F
ST AUGUSTINE FL  0800   78 85  230/  4/  5 1016.7F


$$




USA.gov is the U.S. government's official web portal to all federal, state and local government web resources and services.